User: anonymous   Login
Location: Unspecified
(0.0000°N, 0.0000°E)
Time: 11:13:23
(UTC+00:00)
Language:

CSUNSAT 1 - Orbit

View from above orbital plane
View from above orbital plane
View from above satellite
View from above satellite

Ground track
Ground track

The orbit data is extracted from the following two-line orbital elements,

1 42715U 98067LW  19081.96281470  .00116050  16265-4  33601-3 0  9998
2 42715  51.6285   0.3549 0005080 164.0430 196.0737 15.92801706105536
Epoch (UTC): 22 March 2019 23:06:27
Eccentricity: 0.0005080
inclination: 51.6285°
perigee height: 291 km
apogee height: 298 km
right ascension of ascending node: 0.3549°
argument of perigee: 164.0430°
revolutions per day: 15.92801706
mean anomaly at epoch: 196.0737°
orbit number at epoch: 10553

The dashed part of the orbit path shows where the satellite is in the earth's shadow,  

DLR